Find Starlink 33592

NORAD ID: 62765 Int'l Des: 2025-015 Owner: SPXS Country: US Constellation: starlink operational
LEOCIRCULAR

实时位置

正在加载3D地球...

关于 Starlink 33592

正在加载描述...

即将过境

Passes for default location (London). Set your location on the main map for personalized predictions.

高度历史

Loading altitude history...

两行轨道根数

1 62765U 25015H 26127.08390326 .00024395 00000-0 73091-3 0 9994
2 62765 53.1593 51.0718 0001147 63.8114 296.3007 15.34395036 73299
Epoch: May 7, 2026 • Age: 7 hours

当前状态

高度 481.2 km
速度 7.62 km/s
星下点 -51.63°S, 28.21°W
发射日期 Jan 21, 2025
运行时间 1.2 years
类型 internet

技术详情

分类 Payload
质量 575.00 kg
干质量 530.00 kg
总质量 575.00 kg
长度 0.30 m
直径 4.10 m
跨度 29.00 m
形状 Box + pan
制造商 SPXS
平台类型 Starlink V2MO
阶段状态 In Orbit
所有者/国家 SPXS/US

Most Searched